Location: Bidwell Hollow
(37.7387°N, 90.1707°W)
Time: 04:44:07
(UTC+00:00)

Tiros 1 - Visible Passes

Search period start: 10 May 2026 00:00
Search period end: 20 May 2026 00:00
Orbit: 618 x 648 km, 48.4° (Epoch: 9 May)

Date Brightness Start Highest point End Pass type
(mag) Time Alt. Az. Time Alt. Az. Time Alt. Az.
10 May 8.9 07:20:17 28° ENE 07:20:17 28° ENE 07:22:29 10° ENE visible
10 May 8.7 08:57:38 17° WNW 09:00:12 28° NNW 09:04:09 10° NE visible
11 May 8.2 07:40:26 42° N 07:40:26 42° N 07:43:56 10° NE visible
11 May 9.1 09:18:31 10° WNW 09:22:08 22° N 09:25:44 10° NE visible
12 May 9.8 06:23:13 12° ENE 06:23:13 12° ENE 06:23:38 10° ENE visible
12 May 8.5 08:00:33 30° NW 08:01:15 31° NNW 08:05:20 10° NE visible
12 May 9.3 09:40:39 10° NW 09:44:09 21° N 09:47:37 10° NE visible
13 May 9.2 06:43:17 23° NE 06:43:17 23° NE 06:45:08 10° NE visible
13 May 9.1 08:20:37 15° NW 08:23:09 24° N 08:26:51 10° NE visible
13 May 9.3 10:02:28 10° NW 10:06:08 23° N 10:09:49 10° ENE visible
14 May 8.7 07:03:18 32° N 07:03:18 32° N 07:06:32 10° NE visible
14 May 9.4 08:41:38 10° NW 08:45:08 21° N 08:48:38 10° NE visible
15 May 9.8 05:45:56 12° NE 05:45:56 12° NE 05:46:19 10° NE visible
15 May 9.0 07:23:15 24° NNW 07:24:10 25° NNW 07:27:59 10° NE visible
15 May 9.4 09:03:32 10° NW 09:07:09 22° N 09:10:44 10° ENE visible
16 May 9.2 06:05:48 23° NNE 06:05:48 23° NNE 06:07:43 10° NE visible
16 May 9.4 07:43:07 12° NW 07:46:08 21° N 07:49:40 10° NE visible
16 May 9.1 09:25:09 10° NW 09:29:05 28° NNE 09:33:00 10° ENE visible
17 May 9.0 06:25:33 27° N 06:25:33 27° N 06:29:08 10° NE visible
17 May 9.4 08:04:35 10° NW 08:08:08 21° N 08:11:40 10° NE visible
17 May 8.5 09:46:35 10° NW 09:50:55 41° NNE 09:55:13 10° E visible
18 May 9.4 05:07:43 17° NE 05:07:43 17° NE 05:08:54 10° NE visible
18 May 9.4 06:45:01 17° NW 06:47:07 22° N 06:50:44 10° NE visible
18 May 9.2 08:26:17 10° NW 08:30:06 25° NNE 08:33:55 10° ENE visible
18 May 7.4 10:07:59 10° NW 10:12:33 72° NNE 10:17:05 10° ESE visible
19 May 9.1 02:00:47 10° SSE 02:01:00 10° SSE 02:01:00 10° SSE visible
19 May9.903:49:16ENE03:49:16ENE03:38:47SWvisible
19 May 8.8 05:26:28 31° NNW 05:26:28 31° NNW 05:30:18 10° NE visible
19 May 9.5 07:05:35 10° NW 07:09:07 21° N 07:12:38 10° NE visible
19 May 8.7 08:47:44 10° NW 08:51:58 35° NNE 08:56:10 10° E visible
